Home > Weather > Ahmedabad > Past weeks

Flag for India Weather for the Past 2 Weeks in Ahmedabad, Gujarat, India

Now
57 °F

Clear.


Feels Like: 57 °F
Forecast: 56 / 87 °F
Wind: 2 mph from North

Location: Ahmadabad Airport

Current Time: Feb 15, 2016 at 4:55:02 AM

Latest Report: Feb 15, 2016 at 4:00 AM


Visibility: 2 mi

Pressure: 29.95 "Hg

Humidity: 48%

Dew point: 37 °F

Location of AhmedabadLocation

Historic Weather in Ahmedabad — Graph

°F

Ahmedabad Temperature Yesterday

Maximum temperature yesterday: 86 °F (at 3:30 PM)
Minimum temperature yesterday: 52 °F (at 6:00 AM)
Average temperature yesterday: 69 °F

High & Low Weather Summary for the Past Weeks

 TemperatureHumidityPressure
High90 °F (Feb 9, 3:00 PM)88% (Jan 31, 4:30 AM)30.09 "Hg (Jan 31, 4:30 AM)
Low52 °F (Feb 8, 5:30 AM)13% (Feb 8, 5:00 PM)29.77 "Hg (Feb 6, 4:00 PM)
Average71 °F43%29.95 "Hg
* Reported Jan 31 4:00 AM — Feb 15 3:30 AM, Ahmedabad, Weather by CustomWeather, © 2016

Note: Actual official high and low records may vary slightly from our data, if they occured in-between our weather recording intervals... More about our weather records

Advertising

Ahmedabad Weather History for the Previous 24 Hours

 ConditionsComfort  
Time TempWeatherWind HumidityBarometerVisibility
3:30 AM
Mon, Feb 15
57 °FClear.3 mph51%29.95 "Hg2 mi
2:00 AM59 °FClear.3 mph45%29.95 "Hg2 mi
1:30 AM63 °FClear.5 mph39%29.95 "Hg2 mi
1:00 AM63 °FClear.5 mph39%29.95 "Hg2 mi
12:30 AM63 °FClear.6 mph39%29.95 "Hg2 mi
12:00 AM64 °FClear.5 mph37%29.98 "Hg2 mi
11:30 PM
Sun, Feb 14
64 °FClear.5 mph34%29.98 "Hg2 mi
11:00 PM66 °FClear.5 mph35%29.98 "Hg2 mi
10:30 PM68 °FClear.2 mph33%29.98 "Hg2 mi
10:00 PM68 °FClear.5 mph33%29.98 "Hg2 mi
9:30 PM70 °FClear.5 mph31%29.98 "Hg2 mi
9:00 PM70 °FClear.3 mph33%29.95 "Hg2 mi
8:30 PM72 °FClear.2 mph31%29.95 "Hg2 mi
8:00 PM73 °FClear.3 mph31%29.95 "Hg2 mi
7:30 PM73 °FClear.3 mph31%29.95 "Hg2 mi
7:00 PM77 °FClear.3 mph28%29.92 "Hg2 mi
6:30 PM77 °FClear.3 mph28%29.92 "Hg2 mi
6:00 PM81 °FClear.7 mph24%29.89 "Hg3 mi
5:30 PM82 °FClear.6 mph21%29.89 "Hg4 mi
5:00 PM84 °FClear.6 mph22%29.89 "Hg4 mi
4:30 PM84 °FClear.7 mph22%29.89 "Hg4 mi
4:00 PM84 °FClear.7 mph22%29.89 "Hg4 mi
3:30 PM86 °FClear.2 mph20%29.89 "Hg4 mi
3:00 PM84 °FClear.6 mph20%29.92 "Hg4 mi
2:30 PM84 °FClear.8 mph20%29.92 "Hg4 mi
2:00 PM84 °FClear.5 mph22%29.95 "Hg4 mi
1:30 PM84 °FClear.9 mph18%29.95 "Hg4 mi
1:00 PM82 °FClear.7 mph25%29.98 "Hg3 mi
12:30 PM81 °FClear.7 mph26%29.98 "Hg3 mi
12:00 PM79 °FClear.7 mph28%30.01 "Hg3 mi
11:00 AM75 °FClear.7 mph31%30.04 "Hg2 mi
10:30 AM73 °FClear.7 mph33%30.04 "Hg2 mi
9:30 AM66 °FClear.3 mph37%30.04 "Hg1 mi
9:00 AM63 °FClear.3 mph49%30.04 "Hg1 mi
8:30 AM57 °FHaze.2 mph63%30.04 "Hg1 mi
7:30 AM54 °FHaze.No wind67%30.01 "Hg1 mi
7:00 AM52 °FHaze.No wind77%29.98 "Hg2 mi
6:30 AM52 °FHaze.No wind72%29.98 "Hg2 mi
6:00 AM52 °FHaze.No wind77%29.95 "Hg2 mi
5:30 AM54 °FHaze.No wind72%29.95 "Hg2 mi
5:00 AM54 °FHaze.No wind72%29.95 "Hg2 mi
4:30 AM55 °FClear.No wind63%29.95 "Hg2 mi
4:00 AM55 °FClear.2 mph59%29.95 "Hg2 mi
Weather by CustomWeather, © 2016

See weather overviewHow to use our weather pages